Location: Calvatone
(45.1167°N, 10.4333°E)
Time: 11:44:36
(UTC+00:00)

Cosmos 1954 Rocket - Pass Details

Date: 28 January 2023
Orbit: 751 x 780 km, 74.0° (Epoch: 29 March)

Event Time Altitude Azimuth Distance (km) Brightness Sun altitude
Rises 18:32:07 0° 194° (SSW) 3,237 7.5 -23.4°
Reaches altitude 10° 18:34:30 10° 193° (SSW) 2,310 6.6 -23.8°
Maximum altitude 18:39:44 75° 108° (ESE) 799 3.8 -24.7°
Enters shadow 18:40:04 72° 74° (ENE) 811 3.8 -24.8°
